Data supplied by UK-AIR on 6/6/2017
All Data GMT hour ending 
Status: R =Ratified P=Provisional,P*=As supplied
,,Derry,,,,,,,,,,,,,,,,,,,,,,,
Date,time,"PM<sub>10</sub> particulate matter (Hourly measured)",status,unit,"Nitric oxide",status,unit,"Nitrogen dioxide",status,unit,"Nitrogen oxides as nitrogen dioxide",status,unit,"Non-volatile PM<sub>10</sub> (Hourly measured)",status,unit,"Non-volatile PM<sub>2.5</sub> (Hourly measured)",status,unit,"Ozone",status,unit,"PM<sub>2.5</sub> particulate matter (Hourly measured)",status,unit,"Sulphur dioxide",status,unit,"Volatile PM<sub>10</sub> (Hourly measured)",status,unit,"Volatile PM<sub>2.5</sub> (Hourly measured)",status,unit
 
01-01-2016,01:00,21.500,R,ugm-3 (TEOM FDMS),2.47672,R,ugm-3,8.48831,R,ugm-3,12.28590,R,ugm-3,17.900,R,ugm-3 (TEOM FDMS),14.100,R,ugm-3 (TEOM FDMS),52.95257,R,ugm-3,15.500,R,ugm-3 (TEOM FDMS),5.66240,R,ugm-3,3.600,R,ugm-3 (TEOM FDMS),1.400,R,ugm-3 (TEOM FDMS)
01-01-2016,02:00,14.100,R,ugm-3 (TEOM FDMS),4.90480,R,ugm-3,15.26430,R,ugm-3,22.78489,R,ugm-3,11.600,R,ugm-3 (TEOM FDMS),11.900,R,ugm-3 (TEOM FDMS),45.23587,R,ugm-3,12.200,R,ugm-3 (TEOM FDMS),6.25844,R,ugm-3,2.500,R,ugm-3 (TEOM FDMS),0.300,R,ugm-3 (TEOM FDMS)
01-01-2016,03:00,10.800,R,ugm-3 (TEOM FDMS),5.31755,R,ugm-3,14.57564,R,ugm-3,22.72911,R,ugm-3,9.700,R,ugm-3 (TEOM FDMS),8.000,R,ugm-3 (TEOM FDMS),47.39788,R,ugm-3,8.600,R,ugm-3 (TEOM FDMS),3.05471,R,ugm-3,1.100,R,ugm-3 (TEOM FDMS),0.600,R,ugm-3 (TEOM FDMS)
01-01-2016,04:00,6.900,R,ugm-3 (TEOM FDMS),2.73159,R,ugm-3,8.99114,R,ugm-3,13.17952,R,ugm-3,5.200,R,ugm-3 (TEOM FDMS),3.600,R,ugm-3 (TEOM FDMS),50.74067,R,ugm-3,5.200,R,ugm-3 (TEOM FDMS),2.08615,R,ugm-3,1.700,R,ugm-3 (TEOM FDMS),1.600,R,ugm-3 (TEOM FDMS)
01-01-2016,05:00,11.200,R,ugm-3 (TEOM FDMS),1.42036,R,ugm-3,6.75686,R,ugm-3,8.93472,R,ugm-3,8.600,R,ugm-3 (TEOM FDMS),4.100,R,ugm-3 (TEOM FDMS),51.58885,R,ugm-3,4.500,R,ugm-3 (TEOM FDMS),1.34109,R,ugm-3,2.600,R,ugm-3 (TEOM FDMS),0.400,R,ugm-3 (TEOM FDMS)
01-01-2016,06:00,8.700,R,ugm-3 (TEOM FDMS),0.80139,R,ugm-3,4.02055,R,ugm-3,5.24933,R,ugm-3,6.500,R,ugm-3 (TEOM FDMS),2.800,R,ugm-3 (TEOM FDMS),55.63014,R,ugm-3,4.700,R,ugm-3 (TEOM FDMS),0.37253,R,ugm-3,2.200,R,ugm-3 (TEOM FDMS),1.900,R,ugm-3 (TEOM FDMS)
01-01-2016,07:00,10.700,R,ugm-3 (TEOM FDMS),1.45716,R,ugm-3,6.75686,R,ugm-3,8.99114,R,ugm-3,6.700,R,ugm-3 (TEOM FDMS),3.500,R,ugm-3 (TEOM FDMS),52.58670,R,ugm-3,4.200,R,ugm-3 (TEOM FDMS),1.26659,R,ugm-3,4.000,R,ugm-3 (TEOM FDMS),0.700,R,ugm-3 (TEOM FDMS)
01-01-2016,08:00,8.600,R,ugm-3 (TEOM FDMS),1.52950,R,ugm-3,10.38727,R,ugm-3,12.73247,R,ugm-3,4.800,R,ugm-3 (TEOM FDMS),0.900,R,ugm-3 (TEOM FDMS),51.58885,R,ugm-3,2.300,R,ugm-3 (TEOM FDMS),1.19208,R,ugm-3,3.800,R,ugm-3 (TEOM FDMS),1.400,R,ugm-3 (TEOM FDMS)
01-01-2016,09:00,11.600,R,ugm-3 (TEOM FDMS),0.94701,R,ugm-3,3.01553,R,ugm-3,4.46760,R,ugm-3,8.000,R,ugm-3 (TEOM FDMS),3.400,R,ugm-3 (TEOM FDMS),64.71057,R,ugm-3,4.600,R,ugm-3 (TEOM FDMS),1.49010,R,ugm-3,3.600,R,ugm-3 (TEOM FDMS),1.200,R,ugm-3 (TEOM FDMS)
01-01-2016,10:00,16.600,R,ugm-3 (TEOM FDMS),1.23826,R,ugm-3,6.03107,R,ugm-3,7.92970,R,ugm-3,11.400,R,ugm-3 (TEOM FDMS),7.900,R,ugm-3 (TEOM FDMS),58.22455,R,ugm-3,10.200,R,ugm-3 (TEOM FDMS),2.53318,R,ugm-3,5.200,R,ugm-3 (TEOM FDMS),2.300,R,ugm-3 (TEOM FDMS)
01-01-2016,11:00,12.400,R,ugm-3 (TEOM FDMS),1.16529,R,ugm-3,9.66147,R,ugm-3,11.44823,R,ugm-3,8.800,R,ugm-3 (TEOM FDMS),3.700,R,ugm-3 (TEOM FDMS),53.73422,R,ugm-3,6.900,R,ugm-3 (TEOM FDMS),2.53318,R,ugm-3,3.600,R,ugm-3 (TEOM FDMS),3.200,R,ugm-3 (TEOM FDMS)
01-01-2016,12:00,9.200,R,ugm-3 (TEOM FDMS),1.74809,R,ugm-3,10.49867,R,ugm-3,13.17904,R,ugm-3,4.000,R,ugm-3 (TEOM FDMS),4.400,R,ugm-3 (TEOM FDMS),57.17681,R,ugm-3,7.800,R,ugm-3 (TEOM FDMS),2.83120,R,ugm-3,5.200,R,ugm-3 (TEOM FDMS),3.400,R,ugm-3 (TEOM FDMS)
01-01-2016,13:00,12.100,R,ugm-3 (TEOM FDMS),2.22144,R,ugm-3,12.84483,R,ugm-3,16.25099,R,ugm-3,6.000,R,ugm-3 (TEOM FDMS),3.400,R,ugm-3 (TEOM FDMS),51.98799,R,ugm-3,5.100,R,ugm-3 (TEOM FDMS),2.53318,R,ugm-3,6.100,R,ugm-3 (TEOM FDMS),1.700,R,ugm-3 (TEOM FDMS)
01-01-2016,14:00,14.300,R,ugm-3 (TEOM FDMS),1.85754,R,ugm-3,10.77789,R,ugm-3,13.62608,R,ugm-3,7.400,R,ugm-3 (TEOM FDMS),3.000,R,ugm-3 (TEOM FDMS),54.43272,R,ugm-3,6.100,R,ugm-3 (TEOM FDMS),2.60768,R,ugm-3,6.900,R,ugm-3 (TEOM FDMS),3.100,R,ugm-3 (TEOM FDMS)
01-01-2016,15:00,13.900,R,ugm-3 (TEOM FDMS),1.38388,R,ugm-3,10.72243,R,ugm-3,12.84435,R,ugm-3,8.900,R,ugm-3 (TEOM FDMS),3.800,R,ugm-3 (TEOM FDMS),55.77982,R,ugm-3,7.700,R,ugm-3 (TEOM FDMS),2.75669,R,ugm-3,5.000,R,ugm-3 (TEOM FDMS),3.900,R,ugm-3 (TEOM FDMS)
01-01-2016,16:00,7.900,R,ugm-3 (TEOM FDMS),1.31122,R,ugm-3,7.81830,R,ugm-3,9.82882,R,ugm-3,2.200,R,ugm-3 (TEOM FDMS),2.400,R,ugm-3 (TEOM FDMS),60.12046,R,ugm-3,6.000,R,ugm-3 (TEOM FDMS),2.90570,R,ugm-3,5.700,R,ugm-3 (TEOM FDMS),3.600,R,ugm-3 (TEOM FDMS)
01-01-2016,17:00,7.700,R,ugm-3 (TEOM FDMS),1.27474,R,ugm-3,8.32129,R,ugm-3,10.27586,R,ugm-3,5.200,R,ugm-3 (TEOM FDMS),3.800,R,ugm-3 (TEOM FDMS),59.42197,R,ugm-3,5.300,R,ugm-3 (TEOM FDMS),2.98021,R,ugm-3,2.500,R,ugm-3 (TEOM FDMS),1.500,R,ugm-3 (TEOM FDMS)
01-01-2016,18:00,11.000,R,ugm-3 (TEOM FDMS),1.42036,R,ugm-3,8.65645,R,ugm-3,10.83431,R,ugm-3,6.700,R,ugm-3 (TEOM FDMS),3.800,R,ugm-3 (TEOM FDMS),58.22455,R,ugm-3,6.000,R,ugm-3 (TEOM FDMS),3.57625,R,ugm-3,4.300,R,ugm-3 (TEOM FDMS),2.200,R,ugm-3 (TEOM FDMS)
01-01-2016,19:00,11.300,R,ugm-3 (TEOM FDMS),1.20146,R,ugm-3,8.37723,R,ugm-3,10.21944,R,ugm-3,8.400,R,ugm-3 (TEOM FDMS),4.100,R,ugm-3 (TEOM FDMS),54.43272,R,ugm-3,5.900,R,ugm-3 (TEOM FDMS),3.57625,R,ugm-3,2.900,R,ugm-3 (TEOM FDMS),1.800,R,ugm-3 (TEOM FDMS)
01-01-2016,20:00,13.000,R,ugm-3 (TEOM FDMS),1.52981,R,ugm-3,10.05210,R,ugm-3,12.39778,R,ugm-3,8.300,R,ugm-3 (TEOM FDMS),7.900,R,ugm-3 (TEOM FDMS),51.18971,R,ugm-3,9.500,R,ugm-3 (TEOM FDMS),3.72526,R,ugm-3,4.700,R,ugm-3 (TEOM FDMS),1.600,R,ugm-3 (TEOM FDMS)
01-01-2016,21:00,13.000,R,ugm-3 (TEOM FDMS),1.93020,R,ugm-3,10.83431,R,ugm-3,13.79391,R,ugm-3,10.300,R,ugm-3 (TEOM FDMS),7.700,R,ugm-3 (TEOM FDMS),49.44347,R,ugm-3,9.100,R,ugm-3 (TEOM FDMS),3.87427,R,ugm-3,2.700,R,ugm-3 (TEOM FDMS),1.400,R,ugm-3 (TEOM FDMS)
01-01-2016,22:00,15.700,R,ugm-3 (TEOM FDMS),1.56630,R,ugm-3,10.94524,R,ugm-3,13.34686,R,ugm-3,11.100,R,ugm-3 (TEOM FDMS),5.700,R,ugm-3 (TEOM FDMS),47.94669,R,ugm-3,8.200,R,ugm-3 (TEOM FDMS),4.17229,R,ugm-3,4.600,R,ugm-3 (TEOM FDMS),2.500,R,ugm-3 (TEOM FDMS)
01-01-2016,23:00,11.400,R,ugm-3 (TEOM FDMS),1.74809,R,ugm-3,10.38774,R,ugm-3,13.06811,R,ugm-3,5.200,R,ugm-3 (TEOM FDMS),5.200,R,ugm-3 (TEOM FDMS),48.04648,R,ugm-3,8.400,R,ugm-3 (TEOM FDMS),4.09779,R,ugm-3,6.200,R,ugm-3 (TEOM FDMS),3.200,R,ugm-3 (TEOM FDMS)
01-01-2016,24:00,7.200,R,ugm-3 (TEOM FDMS),1.12912,R,ugm-3,8.54409,R,ugm-3,10.27538,R,ugm-3,1.600,R,ugm-3 (TEOM FDMS),4.000,R,ugm-3 (TEOM FDMS),51.93809,R,ugm-3,6.500,R,ugm-3 (TEOM FDMS),3.94878,R,ugm-3,5.600,R,ugm-3 (TEOM FDMS),2.500,R,ugm-3 (TEOM FDMS)
02-01-2016,01:00,5.500,R,ugm-3 (TEOM FDMS),1.06852,R,ugm-3,8.78603,R,ugm-3,10.42440,R,ugm-3,0.000,R,ugm-3 (TEOM FDMS),2.900,R,ugm-3 (TEOM FDMS),52.95257,R,ugm-3,4.500,R,ugm-3 (TEOM FDMS),0.99340,R,ugm-3,5.500,R,ugm-3 (TEOM FDMS),1.600,R,ugm-3 (TEOM FDMS)
02-01-2016,02:00,7.300,R,ugm-3 (TEOM FDMS),0.92300,R,ugm-3,7.44600,R,ugm-3,8.86125,R,ugm-3,2.100,R,ugm-3 (TEOM FDMS),2.900,R,ugm-3 (TEOM FDMS),52.81953,R,ugm-3,4.400,R,ugm-3 (TEOM FDMS),0.89406,R,ugm-3,5.200,R,ugm-3 (TEOM FDMS),1.500,R,ugm-3 (TEOM FDMS)
02-01-2016,03:00,6.500,R,ugm-3 (TEOM FDMS),0.69194,R,ugm-3,8.99114,R,ugm-3,10.05210,R,ugm-3,4.800,R,ugm-3 (TEOM FDMS),1.800,R,ugm-3 (TEOM FDMS),51.83831,R,ugm-3,3.500,R,ugm-3 (TEOM FDMS),0.81956,R,ugm-3,1.700,R,ugm-3 (TEOM FDMS),1.700,R,ugm-3 (TEOM FDMS)
02-01-2016,04:00,5.600,R,ugm-3 (TEOM FDMS),0.40038,R,ugm-3,6.03155,R,ugm-3,6.64546,R,ugm-3,-0.600,R,ugm-3 (TEOM FDMS),2.300,R,ugm-3 (TEOM FDMS),52.08777,R,ugm-3,4.300,R,ugm-3 (TEOM FDMS),0.74505,R,ugm-3,6.200,R,ugm-3 (TEOM FDMS),2.000,R,ugm-3 (TEOM FDMS)
02-01-2016,05:00,8.600,R,ugm-3 (TEOM FDMS),0.25539,R,ugm-3,5.19292,R,ugm-3,5.58450,R,ugm-3,10.400,R,ugm-3 (TEOM FDMS),3.100,R,ugm-3 (TEOM FDMS),50.04218,R,ugm-3,4.000,R,ugm-3 (TEOM FDMS),0.74505,R,ugm-3,-1.800,R,ugm-3 (TEOM FDMS),0.900,R,ugm-3 (TEOM FDMS)
02-01-2016,06:00,9.800,R,ugm-3 (TEOM FDMS),0.25539,R,ugm-3,5.24838,R,ugm-3,5.63996,R,ugm-3,10.400,R,ugm-3 (TEOM FDMS),1.300,R,ugm-3 (TEOM FDMS),47.64734,R,ugm-3,3.700,R,ugm-3 (TEOM FDMS),0.52154,R,ugm-3,-0.600,R,ugm-3 (TEOM FDMS),2.400,R,ugm-3 (TEOM FDMS)
02-01-2016,07:00,6.700,R,ugm-3 (TEOM FDMS),0.40038,R,ugm-3,6.08749,R,ugm-3,6.70140,R,ugm-3,0.600,R,ugm-3 (TEOM FDMS),3.600,R,ugm-3 (TEOM FDMS),44.80347,R,ugm-3,4.000,R,ugm-3 (TEOM FDMS),0.22352,R,ugm-3,6.100,R,ugm-3 (TEOM FDMS),0.400,R,ugm-3 (TEOM FDMS)
02-01-2016,08:00,8.300,R,ugm-3 (TEOM FDMS),0.80139,R,ugm-3,11.67199,R,ugm-3,12.90077,R,ugm-3,9.300,R,ugm-3 (TEOM FDMS),2.800,R,ugm-3 (TEOM FDMS),37.91830,R,ugm-3,3.800,R,ugm-3 (TEOM FDMS),0.67055,R,ugm-3,-1.000,R,ugm-3 (TEOM FDMS),1.000,R,ugm-3 (TEOM FDMS)
02-01-2016,09:00,3.000,R,ugm-3 (TEOM FDMS),0.80139,R,ugm-3,21.38844,R,ugm-3,22.61723,R,ugm-3,-2.000,R,ugm-3 (TEOM FDMS),4.600,R,ugm-3 (TEOM FDMS),24.84647,R,ugm-3,4.600,R,ugm-3 (TEOM FDMS),0.81956,R,ugm-3,5.000,R,ugm-3 (TEOM FDMS),0.000,R,ugm-3 (TEOM FDMS)
02-01-2016,10:00,23.800,R,ugm-3 (TEOM FDMS),1.34771,R,ugm-3,26.58232,R,ugm-3,28.64877,R,ugm-3,25.100,R,ugm-3 (TEOM FDMS),12.400,R,ugm-3 (TEOM FDMS),17.61205,R,ugm-3,14.300,R,ugm-3 (TEOM FDMS),0.74505,R,ugm-3,-1.300,R,ugm-3 (TEOM FDMS),1.900,R,ugm-3 (TEOM FDMS)
02-01-2016,11:00,22.100,R,ugm-3 (TEOM FDMS),4.47999,R,ugm-3,29.20722,R,ugm-3,36.07644,R,ugm-3,12.900,R,ugm-3 (TEOM FDMS),20.900,R,ugm-3 (TEOM FDMS),16.61420,R,ugm-3,21.100,R,ugm-3 (TEOM FDMS),1.26659,R,ugm-3,9.200,R,ugm-3 (TEOM FDMS),0.200,R,ugm-3 (TEOM FDMS)
02-01-2016,12:00,40.800,R,ugm-3 (TEOM FDMS),9.76075,R,ugm-3,35.51752,R,ugm-3,50.48378,R,ugm-3,34.800,R,ugm-3 (TEOM FDMS),29.800,R,ugm-3 (TEOM FDMS),11.82452,R,ugm-3,33.700,R,ugm-3 (TEOM FDMS),1.56394,R,ugm-3,6.000,R,ugm-3 (TEOM FDMS),3.900,R,ugm-3 (TEOM FDMS)
02-01-2016,13:00,21.700,R,ugm-3 (TEOM FDMS),7.28423,R,ugm-3,33.78623,R,ugm-3,44.95523,R,ugm-3,11.700,R,ugm-3 (TEOM FDMS),14.500,R,ugm-3 (TEOM FDMS),13.62065,R,ugm-3,17.900,R,ugm-3 (TEOM FDMS),0.89406,R,ugm-3,10.000,R,ugm-3 (TEOM FDMS),3.400,R,ugm-3 (TEOM FDMS)
02-01-2016,14:00,12.000,R,ugm-3 (TEOM FDMS),6.73792,R,ugm-3,29.70925,R,ugm-3,40.04058,R,ugm-3,2.200,R,ugm-3 (TEOM FDMS),19.600,R,ugm-3 (TEOM FDMS),17.36259,R,ugm-3,22.000,R,ugm-3 (TEOM FDMS),0.96857,R,ugm-3,9.800,R,ugm-3 (TEOM FDMS),2.400,R,ugm-3 (TEOM FDMS)
02-01-2016,15:00,12.700,R,ugm-3 (TEOM FDMS),5.53583,R,ugm-3,35.01453,R,ugm-3,43.50268,R,ugm-3,11.100,R,ugm-3 (TEOM FDMS),4.900,R,ugm-3 (TEOM FDMS),9.82882,R,ugm-3,6.600,R,ugm-3 (TEOM FDMS),0.96857,R,ugm-3,1.600,R,ugm-3 (TEOM FDMS),1.700,R,ugm-3 (TEOM FDMS)
02-01-2016,16:00,24.500,R,ugm-3 (TEOM FDMS),6.73760,R,ugm-3,39.48261,R,ugm-3,49.81345,R,ugm-3,20.600,R,ugm-3 (TEOM FDMS),8.800,R,ugm-3 (TEOM FDMS),5.08904,R,ugm-3,11.300,R,ugm-3 (TEOM FDMS),1.11758,R,ugm-3,3.900,R,ugm-3 (TEOM FDMS),2.500,R,ugm-3 (TEOM FDMS)
02-01-2016,17:00,26.500,R,ugm-3 (TEOM FDMS),9.76075,R,ugm-3,42.10703,R,ugm-3,57.07330,R,ugm-3,27.400,R,ugm-3 (TEOM FDMS),19.200,R,ugm-3 (TEOM FDMS),3.94151,R,ugm-3,22.000,R,ugm-3 (TEOM FDMS),1.26659,R,ugm-3,-0.900,R,ugm-3 (TEOM FDMS),2.800,R,ugm-3 (TEOM FDMS)
02-01-2016,18:00,23.100,R,ugm-3 (TEOM FDMS),17.48216,R,ugm-3,44.50866,R,ugm-3,71.31426,R,ugm-3,19.000,R,ugm-3 (TEOM FDMS),16.800,R,ugm-3 (TEOM FDMS),1.49678,R,ugm-3,21.100,R,ugm-3 (TEOM FDMS),1.48944,R,ugm-3,4.100,R,ugm-3 (TEOM FDMS),4.300,R,ugm-3 (TEOM FDMS)
02-01-2016,19:00,35.200,R,ugm-3 (TEOM FDMS),35.36470,R,ugm-3,46.74246,R,ugm-3,100.96757,R,ugm-3,35.600,R,ugm-3 (TEOM FDMS),23.500,R,ugm-3 (TEOM FDMS),2.54452,R,ugm-3,29.300,R,ugm-3 (TEOM FDMS),3.12656,R,ugm-3,-0.400,R,ugm-3 (TEOM FDMS),5.800,R,ugm-3 (TEOM FDMS)
02-01-2016,20:00,35.600,R,ugm-3 (TEOM FDMS),19.95867,R,ugm-3,38.25383,R,ugm-3,68.85669,R,ugm-3,24.200,R,ugm-3 (TEOM FDMS),30.400,R,ugm-3 (TEOM FDMS),9.03054,R,ugm-3,33.600,R,ugm-3 (TEOM FDMS),6.25312,R,ugm-3,11.400,R,ugm-3 (TEOM FDMS),3.200,R,ugm-3 (TEOM FDMS)
02-01-2016,21:00,53.200,R,ugm-3 (TEOM FDMS),35.07345,R,ugm-3,45.23445,R,ugm-3,99.01299,R,ugm-3,47.600,R,ugm-3 (TEOM FDMS),47.800,R,ugm-3 (TEOM FDMS),3.84172,R,ugm-3,52.600,R,ugm-3 (TEOM FDMS),10.71877,R,ugm-3,5.600,R,ugm-3 (TEOM FDMS),4.800,R,ugm-3 (TEOM FDMS)
02-01-2016,22:00,51.200,R,ugm-3 (TEOM FDMS),30.62995,R,ugm-3,43.44770,R,ugm-3,90.41296,R,ugm-3,43.200,R,ugm-3 (TEOM FDMS),48.000,R,ugm-3 (TEOM FDMS),3.69205,R,ugm-3,55.200,R,ugm-3 (TEOM FDMS),8.41177,R,ugm-3,8.000,R,ugm-3 (TEOM FDMS),7.200,R,ugm-3 (TEOM FDMS)
02-01-2016,23:00,40.600,R,ugm-3 (TEOM FDMS),23.30954,R,ugm-3,42.66548,R,ugm-3,78.40628,R,ugm-3,29.600,R,ugm-3 (TEOM FDMS),40.800,R,ugm-3 (TEOM FDMS),4.68990,R,ugm-3,46.400,R,ugm-3 (TEOM FDMS),7.89090,R,ugm-3,11.000,R,ugm-3 (TEOM FDMS),5.600,R,ugm-3 (TEOM FDMS)
02-01-2016,24:00,25.800,R,ugm-3 (TEOM FDMS),5.35404,R,ugm-3,21.22062,R,ugm-3,29.43003,R,ugm-3,14.400,R,ugm-3 (TEOM FDMS),21.800,R,ugm-3 (TEOM FDMS),15.61635,R,ugm-3,27.800,R,ugm-3 (TEOM FDMS),4.61533,R,ugm-3,11.400,R,ugm-3 (TEOM FDMS),6.000,R,ugm-3 (TEOM FDMS)
03-01-2016,01:00,19.900,R,ugm-3 (TEOM FDMS),4.08283,R,ugm-3,17.04548,R,ugm-3,23.30573,R,ugm-3,16.600,R,ugm-3 (TEOM FDMS),11.600,R,ugm-3 (TEOM FDMS),21.08790,R,ugm-3,17.300,R,ugm-3 (TEOM FDMS),2.08260,R,ugm-3,3.300,R,ugm-3 (TEOM FDMS),5.700,R,ugm-3 (TEOM FDMS)
03-01-2016,02:00,13.700,R,ugm-3 (TEOM FDMS),2.62432,R,ugm-3,13.25108,R,ugm-3,17.27498,R,ugm-3,8.300,R,ugm-3 (TEOM FDMS),3.800,R,ugm-3 (TEOM FDMS),47.23157,R,ugm-3,11.000,R,ugm-3 (TEOM FDMS),1.78546,R,ugm-3,5.400,R,ugm-3 (TEOM FDMS),7.200,R,ugm-3 (TEOM FDMS)
03-01-2016,03:00,7.600,R,ugm-3 (TEOM FDMS),3.79117,R,ugm-3,15.79916,R,ugm-3,21.61221,R,ugm-3,-3.400,R,ugm-3 (TEOM FDMS),3.800,R,ugm-3 (TEOM FDMS),45.50196,R,ugm-3,7.000,R,ugm-3 (TEOM FDMS),1.48744,R,ugm-3,11.000,R,ugm-3 (TEOM FDMS),3.200,R,ugm-3 (TEOM FDMS)
03-01-2016,04:00,5.700,R,ugm-3 (TEOM FDMS),0.94764,R,ugm-3,7.48218,R,ugm-3,8.93520,R,ugm-3,-1.900,R,ugm-3 (TEOM FDMS),-1.400,R,ugm-3 (TEOM FDMS),47.99659,R,ugm-3,5.100,R,ugm-3 (TEOM FDMS),0.59604,R,ugm-3,7.600,R,ugm-3 (TEOM FDMS),6.500,R,ugm-3 (TEOM FDMS)
03-01-2016,05:00,,,,0.36484,R,ugm-3,3.07052,R,ugm-3,3.62993,R,ugm-3,,,,-2.300,R,ugm-3 (TEOM FDMS),55.72992,R,ugm-3,3.700,R,ugm-3 (TEOM FDMS),0.37253,R,ugm-3,,,,6.000,R,ugm-3 (TEOM FDMS)
03-01-2016,06:00,4.900,R,ugm-3 (TEOM FDMS),0.54694,R,ugm-3,4.91321,R,ugm-3,5.75184,R,ugm-3,-2.600,R,ugm-3 (TEOM FDMS),-2.500,R,ugm-3 (TEOM FDMS),55.58025,R,ugm-3,3.000,R,ugm-3 (TEOM FDMS),0.44703,R,ugm-3,7.500,R,ugm-3 (TEOM FDMS),5.500,R,ugm-3 (TEOM FDMS)
03-01-2016,07:00,5.200,R,ugm-3 (TEOM FDMS),1.42161,R,ugm-3,4.46569,R,ugm-3,6.64546,R,ugm-3,-3.500,R,ugm-3 (TEOM FDMS),-0.700,R,ugm-3 (TEOM FDMS),59.97079,R,ugm-3,2.300,R,ugm-3 (TEOM FDMS),1.04108,R,ugm-3,8.700,R,ugm-3 (TEOM FDMS),3.000,R,ugm-3 (TEOM FDMS)
03-01-2016,08:00,6.000,R,ugm-3 (TEOM FDMS),0.91084,R,ugm-3,4.18790,R,ugm-3,5.58450,R,ugm-3,3.300,R,ugm-3 (TEOM FDMS),-1.800,R,ugm-3 (TEOM FDMS),62.21595,R,ugm-3,3.400,R,ugm-3 (TEOM FDMS),1.04041,R,ugm-3,2.700,R,ugm-3 (TEOM FDMS),5.200,R,ugm-3 (TEOM FDMS)
03-01-2016,09:00,7.300,R,ugm-3 (TEOM FDMS),0.69225,R,ugm-3,3.51757,R,ugm-3,4.57900,R,ugm-3,2.200,R,ugm-3 (TEOM FDMS),-2.800,R,ugm-3 (TEOM FDMS),67.15531,R,ugm-3,0.800,R,ugm-3 (TEOM FDMS),1.33843,R,ugm-3,5.100,R,ugm-3 (TEOM FDMS),3.600,R,ugm-3 (TEOM FDMS)
03-01-2016,10:00,6.500,R,ugm-3 (TEOM FDMS),0.91115,R,ugm-3,4.02008,R,ugm-3,5.41716,R,ugm-3,-2.900,R,ugm-3 (TEOM FDMS),0.600,R,ugm-3 (TEOM FDMS),68.10326,R,ugm-3,3.600,R,ugm-3 (TEOM FDMS),1.56195,R,ugm-3,9.400,R,ugm-3 (TEOM FDMS),3.000,R,ugm-3 (TEOM FDMS)
03-01-2016,11:00,4.700,R,ugm-3 (TEOM FDMS),0.94732,R,ugm-3,4.80229,R,ugm-3,6.25483,R,ugm-3,-0.800,R,ugm-3 (TEOM FDMS),1.000,R,ugm-3 (TEOM FDMS),67.45466,R,ugm-3,3.900,R,ugm-3 (TEOM FDMS),1.78546,R,ugm-3,5.500,R,ugm-3 (TEOM FDMS),2.900,R,ugm-3 (TEOM FDMS)
03-01-2016,12:00,5.800,R,ugm-3 (TEOM FDMS),0.94732,R,ugm-3,5.08103,R,ugm-3,6.53358,R,ugm-3,-0.800,R,ugm-3 (TEOM FDMS),-0.200,R,ugm-3 (TEOM FDMS),69.20090,R,ugm-3,2.700,R,ugm-3 (TEOM FDMS),2.30567,R,ugm-3,6.600,R,ugm-3 (TEOM FDMS),2.900,R,ugm-3 (TEOM FDMS)
03-01-2016,13:00,6.800,R,ugm-3 (TEOM FDMS),1.56754,R,ugm-3,8.31890,R,ugm-3,10.72243,R,ugm-3,2.600,R,ugm-3 (TEOM FDMS),2.100,R,ugm-3 (TEOM FDMS),64.76047,R,ugm-3,4.900,R,ugm-3 (TEOM FDMS),2.60236,R,ugm-3,4.200,R,ugm-3 (TEOM FDMS),2.800,R,ugm-3 (TEOM FDMS)
03-01-2016,14:00,6.200,R,ugm-3 (TEOM FDMS),1.89558,R,ugm-3,14.62823,R,ugm-3,17.53476,R,ugm-3,-2.100,R,ugm-3 (TEOM FDMS),2.500,R,ugm-3 (TEOM FDMS),55.23100,R,ugm-3,4.000,R,ugm-3 (TEOM FDMS),3.12390,R,ugm-3,8.300,R,ugm-3 (TEOM FDMS),1.500,R,ugm-3 (TEOM FDMS)
03-01-2016,15:00,12.500,R,ugm-3 (TEOM FDMS),3.79117,R,ugm-3,19.14986,R,ugm-3,24.96291,R,ugm-3,9.500,R,ugm-3 (TEOM FDMS),5.400,R,ugm-3 (TEOM FDMS),49.89250,R,ugm-3,7.300,R,ugm-3 (TEOM FDMS),4.16497,R,ugm-3,3.000,R,ugm-3 (TEOM FDMS),1.900,R,ugm-3 (TEOM FDMS)
03-01-2016,16:00,6.700,R,ugm-3 (TEOM FDMS),3.68172,R,ugm-3,23.95263,R,ugm-3,29.59785,R,ugm-3,0.300,R,ugm-3 (TEOM FDMS),5.600,R,ugm-3 (TEOM FDMS),45.25250,R,ugm-3,8.100,R,ugm-3 (TEOM FDMS),4.83486,R,ugm-3,6.400,R,ugm-3 (TEOM FDMS),2.500,R,ugm-3 (TEOM FDMS)
03-01-2016,17:00,20.800,R,ugm-3 (TEOM FDMS),4.41077,R,ugm-3,40.03484,R,ugm-3,46.79792,R,ugm-3,17.600,R,ugm-3 (TEOM FDMS),12.700,R,ugm-3 (TEOM FDMS),30.23486,R,ugm-3,13.500,R,ugm-3 (TEOM FDMS),4.98320,R,ugm-3,3.200,R,ugm-3 (TEOM FDMS),0.800,R,ugm-3 (TEOM FDMS)
03-01-2016,18:00,15.800,R,ugm-3 (TEOM FDMS),1.96855,R,ugm-3,26.07646,R,ugm-3,29.09486,R,ugm-3,8.500,R,ugm-3 (TEOM FDMS),14.500,R,ugm-3 (TEOM FDMS),41.71013,R,ugm-3,17.300,R,ugm-3 (TEOM FDMS),4.09047,R,ugm-3,7.300,R,ugm-3 (TEOM FDMS),2.800,R,ugm-3 (TEOM FDMS)
03-01-2016,19:00,13.400,R,ugm-3 (TEOM FDMS),1.27568,R,ugm-3,19.43291,R,ugm-3,21.38892,R,ugm-3,11.400,R,ugm-3 (TEOM FDMS),8.700,R,ugm-3 (TEOM FDMS),47.34798,R,ugm-3,8.400,R,ugm-3 (TEOM FDMS),3.49576,R,ugm-3,2.000,R,ugm-3 (TEOM FDMS),-0.300,R,ugm-3 (TEOM FDMS)
03-01-2016,20:00,11.400,R,ugm-3 (TEOM FDMS),1.45809,R,ugm-3,20.82856,R,ugm-3,23.06427,R,ugm-3,5.400,R,ugm-3 (TEOM FDMS),6.400,R,ugm-3 (TEOM FDMS),41.26110,R,ugm-3,10.100,R,ugm-3 (TEOM FDMS),3.57026,R,ugm-3,6.000,R,ugm-3 (TEOM FDMS),3.700,R,ugm-3 (TEOM FDMS)
03-01-2016,21:00,14.700,R,ugm-3 (TEOM FDMS),1.23919,R,ugm-3,20.27059,R,ugm-3,22.17066,R,ugm-3,13.400,R,ugm-3 (TEOM FDMS),8.800,R,ugm-3 (TEOM FDMS),43.95529,R,ugm-3,9.500,R,ugm-3 (TEOM FDMS),3.56960,R,ugm-3,1.300,R,ugm-3 (TEOM FDMS),0.700,R,ugm-3 (TEOM FDMS)
03-01-2016,22:00,16.900,R,ugm-3 (TEOM FDMS),1.53106,R,ugm-3,30.88018,R,ugm-3,33.22778,R,ugm-3,9.100,R,ugm-3 (TEOM FDMS),12.200,R,ugm-3 (TEOM FDMS),32.97894,R,ugm-3,13.900,R,ugm-3 (TEOM FDMS),4.01530,R,ugm-3,7.800,R,ugm-3 (TEOM FDMS),1.700,R,ugm-3 (TEOM FDMS)
03-01-2016,23:00,19.100,R,ugm-3 (TEOM FDMS),0.98412,R,ugm-3,18.59476,R,ugm-3,20.10372,R,ugm-3,16.000,R,ugm-3 (TEOM FDMS),9.700,R,ugm-3 (TEOM FDMS),40.81207,R,ugm-3,11.200,R,ugm-3 (TEOM FDMS),3.19840,R,ugm-3,3.100,R,ugm-3 (TEOM FDMS),1.500,R,ugm-3 (TEOM FDMS)
03-01-2016,24:00,13.400,R,ugm-3 (TEOM FDMS),0.72874,R,ugm-3,19.43339,R,ugm-3,20.55077,R,ugm-3,15.400,R,ugm-3 (TEOM FDMS),8.600,R,ugm-3 (TEOM FDMS),39.16561,R,ugm-3,11.000,R,ugm-3 (TEOM FDMS),2.97489,R,ugm-3,-2.000,R,ugm-3 (TEOM FDMS),2.400,R,ugm-3 (TEOM FDMS)
04-01-2016,01:00,13.200,R,ugm-3 (TEOM FDMS),0.58374,R,ugm-3,11.40105,R,ugm-3,12.29610,R,ugm-3,9.200,R,ugm-3 (TEOM FDMS),8.200,R,ugm-3 (TEOM FDMS),46.83243,R,ugm-3,8.900,R,ugm-3 (TEOM FDMS),1.58412,R,ugm-3,4.000,R,ugm-3 (TEOM FDMS),0.700,R,ugm-3 (TEOM FDMS)
04-01-2016,02:00,14.200,R,ugm-3 (TEOM FDMS),0.77707,R,ugm-3,11.47755,R,ugm-3,12.66904,R,ugm-3,10.600,R,ugm-3 (TEOM FDMS),6.100,R,ugm-3 (TEOM FDMS),41.31099,R,ugm-3,9.300,R,ugm-3 (TEOM FDMS),1.48478,R,ugm-3,3.600,R,ugm-3 (TEOM FDMS),3.200,R,ugm-3 (TEOM FDMS)
04-01-2016,03:00,13.200,R,ugm-3 (TEOM FDMS),0.61991,R,ugm-3,14.14007,R,ugm-3,15.09058,R,ugm-3,7.500,R,ugm-3 (TEOM FDMS),6.500,R,ugm-3 (TEOM FDMS),43.70583,R,ugm-3,6.300,R,ugm-3 (TEOM FDMS),1.63379,R,ugm-3,5.700,R,ugm-3 (TEOM FDMS),-0.200,R,ugm-3 (TEOM FDMS)
04-01-2016,04:00,9.400,R,ugm-3 (TEOM FDMS),0.40132,R,ugm-3,9.33348,R,ugm-3,9.94883,R,ugm-3,2.900,R,ugm-3 (TEOM FDMS),4.600,R,ugm-3 (TEOM FDMS),41.01164,R,ugm-3,4.500,R,ugm-3 (TEOM FDMS),1.55929,R,ugm-3,6.500,R,ugm-3 (TEOM FDMS),-0.100,R,ugm-3 (TEOM FDMS)
04-01-2016,05:00,9.900,R,ugm-3 (TEOM FDMS),0.47429,R,ugm-3,7.54481,R,ugm-3,8.27204,R,ugm-3,5.300,R,ugm-3 (TEOM FDMS),3.500,R,ugm-3 (TEOM FDMS),41.90970,R,ugm-3,2.700,R,ugm-3 (TEOM FDMS),1.48545,R,ugm-3,4.600,R,ugm-3 (TEOM FDMS),-0.800,R,ugm-3 (TEOM FDMS)
04-01-2016,06:00,7.500,R,ugm-3 (TEOM FDMS),0.47429,R,ugm-3,7.09777,R,ugm-3,7.82499,R,ugm-3,1.800,R,ugm-3 (TEOM FDMS),3.900,R,ugm-3 (TEOM FDMS),42.65809,R,ugm-3,5.100,R,ugm-3 (TEOM FDMS),1.18876,R,ugm-3,5.700,R,ugm-3 (TEOM FDMS),1.200,R,ugm-3 (TEOM FDMS)
04-01-2016,07:00,11.400,R,ugm-3 (TEOM FDMS),0.80170,R,ugm-3,17.10349,R,ugm-3,18.33275,R,ugm-3,10.500,R,ugm-3 (TEOM FDMS),4.300,R,ugm-3 (TEOM FDMS),33.77722,R,ugm-3,4.800,R,ugm-3 (TEOM FDMS),1.18942,R,ugm-3,0.900,R,ugm-3 (TEOM FDMS),0.500,R,ugm-3 (TEOM FDMS)
04-01-2016,08:00,11.800,R,ugm-3 (TEOM FDMS),1.64051,R,ugm-3,24.03439,R,ugm-3,26.54980,R,ugm-3,12.600,R,ugm-3 (TEOM FDMS),2.000,R,ugm-3 (TEOM FDMS),36.37163,R,ugm-3,2.500,R,ugm-3 (TEOM FDMS),2.00632,R,ugm-3,-0.800,R,ugm-3 (TEOM FDMS),0.500,R,ugm-3 (TEOM FDMS)
04-01-2016,09:00,7.100,R,ugm-3 (TEOM FDMS),2.55166,R,ugm-3,29.34397,R,ugm-3,33.25646,R,ugm-3,11.300,R,ugm-3 (TEOM FDMS),1.700,R,ugm-3 (TEOM FDMS),35.72303,R,ugm-3,2.000,R,ugm-3 (TEOM FDMS),1.26260,R,ugm-3,-4.200,R,ugm-3 (TEOM FDMS),0.300,R,ugm-3 (TEOM FDMS)
04-01-2016,10:00,5.900,R,ugm-3 (TEOM FDMS),2.84353,R,ugm-3,34.76495,R,ugm-3,39.12497,R,ugm-3,8.200,R,ugm-3 (TEOM FDMS),1.800,R,ugm-3 (TEOM FDMS),31.98109,R,ugm-3,2.000,R,ugm-3 (TEOM FDMS),1.78347,R,ugm-3,-2.300,R,ugm-3 (TEOM FDMS),0.200,R,ugm-3 (TEOM FDMS)
04-01-2016,11:00,6.800,R,ugm-3 (TEOM FDMS),2.66080,R,ugm-3,24.42502,R,ugm-3,28.50486,R,ugm-3,7.300,R,ugm-3 (TEOM FDMS),2.000,R,ugm-3 (TEOM FDMS),49.99229,R,ugm-3,2.600,R,ugm-3 (TEOM FDMS),1.18942,R,ugm-3,-0.500,R,ugm-3 (TEOM FDMS),0.600,R,ugm-3 (TEOM FDMS)
04-01-2016,12:00,7.600,R,ugm-3 (TEOM FDMS),2.51518,R,ugm-3,23.13982,R,ugm-3,26.99637,R,ugm-3,4.600,R,ugm-3 (TEOM FDMS),3.400,R,ugm-3 (TEOM FDMS),43.00734,R,ugm-3,4.700,R,ugm-3 (TEOM FDMS),1.11425,R,ugm-3,3.000,R,ugm-3 (TEOM FDMS),1.300,R,ugm-3 (TEOM FDMS)
04-01-2016,13:00,7.700,R,ugm-3 (TEOM FDMS),4.76302,R,ugm-3,27.42525,R,ugm-3,34.72845,R,ugm-3,4.900,R,ugm-3 (TEOM FDMS),1.800,R,ugm-3 (TEOM FDMS),34.62540,R,ugm-3,2.900,R,ugm-3 (TEOM FDMS),1.28788,R,ugm-3,2.800,R,ugm-3 (TEOM FDMS),1.100,R,ugm-3 (TEOM FDMS)
04-01-2016,14:00,8.500,R,ugm-3 (TEOM FDMS),,,,,,,,,,7.700,R,ugm-3 (TEOM FDMS),5.200,R,ugm-3 (TEOM FDMS),26.29335,R,ugm-3,6.400,R,ugm-3 (TEOM FDMS),,,,0.800,R,ugm-3 (TEOM FDMS),1.200,R,ugm-3 (TEOM FDMS)
04-01-2016,15:00,10.000,R,ugm-3 (TEOM FDMS),4.33780,R,ugm-3,27.38748,R,ugm-3,34.03868,R,ugm-3,5.000,R,ugm-3 (TEOM FDMS),4.400,R,ugm-3 (TEOM FDMS),22.65120,R,ugm-3,4.900,R,ugm-3 (TEOM FDMS),2.97223,R,ugm-3,5.000,R,ugm-3 (TEOM FDMS),0.500,R,ugm-3 (TEOM FDMS)
04-01-2016,16:00,5.400,R,ugm-3 (TEOM FDMS),4.26483,R,ugm-3,27.77906,R,ugm-3,34.31838,R,ugm-3,-0.300,R,ugm-3 (TEOM FDMS),3.000,R,ugm-3 (TEOM FDMS),24.04819,R,ugm-3,3.900,R,ugm-3 (TEOM FDMS),3.49243,R,ugm-3,5.700,R,ugm-3 (TEOM FDMS),0.900,R,ugm-3 (TEOM FDMS)
04-01-2016,17:00,,,,3.86414,R,ugm-3,26.60479,R,ugm-3,32.52971,R,ugm-3,,,,2.000,R,ugm-3 (TEOM FDMS),26.59270,R,ugm-3,3.600,R,ugm-3 (TEOM FDMS),2.08016,R,ugm-3,,,,1.600,R,ugm-3 (TEOM FDMS)
04-01-2016,18:00,7.200,R,ugm-3 (TEOM FDMS),4.26483,R,ugm-3,29.06474,R,ugm-3,35.60406,R,ugm-3,7.200,R,ugm-3 (TEOM FDMS),4.700,R,ugm-3 (TEOM FDMS),26.14367,R,ugm-3,6.000,R,ugm-3 (TEOM FDMS),1.26260,R,ugm-3,0.000,R,ugm-3 (TEOM FDMS),1.300,R,ugm-3 (TEOM FDMS)
04-01-2016,19:00,10.600,R,ugm-3 (TEOM FDMS),3.39016,R,ugm-3,28.78456,R,ugm-3,33.98273,R,ugm-3,8.100,R,ugm-3 (TEOM FDMS),6.100,R,ugm-3 (TEOM FDMS),26.29335,R,ugm-3,8.400,R,ugm-3 (TEOM FDMS),2.37751,R,ugm-3,2.500,R,ugm-3 (TEOM FDMS),2.300,R,ugm-3 (TEOM FDMS)